Accueil
METAR-TAF:

METAR-TAF

Aéroports :

Emmen, Suisse

latitude: 47-05-32N, longitude: 8-18-16E, altitude: 426 m

Observation

Le bulletin a été fait il y a 26 minutes, à 09:50 UTC
Vent 7 kt de nord-est, variant entre nord et est/nord-est
Température 0°C
Humidité 74%
Pression 1012 hPa
Visibilité: 7000 m
Ciel couvert à une hauteur de 2100 ft

METAR: LSME 240950Z AUTO 04007KT 010V070 7000NDV OVC021 M00/M04 Q1012 RMK

Heure: 11:16 (10:16 UTC)


TAF: absent

Observations et prévisions météorologiques de plus de 4000 aéroports (messages METAR et TAF).

Les stations disponibles sont représentées par des disques jaunes et rouges sur la carte.

Passer la souris dessus pour voir le nom de la station.

Cliquer dessus pour voir les observations et prévisions météorologiques.

Pour changer de carte: cliquez sur les boutons verts avec une croix noire pour zoomer, sur le bouton vert avec un tiret pour effectuer un zoom arrière, ou sur les flèches vertes pour les cartes adjacentes.


METAR-TAF: